Flag for U.S.A. Weather past 2 weeks in Worcester, Massachusetts, U.S.A.

Now
72 °F

Clear.


Feels Like: 72 °F
Forecast: 71 / 84 °F
Wind: 13 mph from Southwest

Location: Worcester Regional Airport

Current Time: Aug 3, 2015 at 11:31:28 PM

Latest Report: Aug 3, 2015 at 10:54 PM


Visibility: 10 mi

Pressure: 29.82 "Hg

Humidity: 81%

Dew point: 66 °F

Location of WorcesterLocation

Historic Weather in Worcester — Graph

°F

Worcester temperature yesterday

Maximum temperature yesterday: 81 °F (at 3:54 PM)
Minimum temperature yesterday: 61 °F (at 4:54 AM)
Average temperature yesterday: 71 °F

Past Weeks' High & Low Weather Summary

 TemperatureHumidityPressure
High88 °F (Jul 29, 2:54 PM)97% (Jul 26, 5:54 AM)30.07 "Hg (Jul 26, 5:54 AM)
Low57 °F (Jul 25, 4:54 AM)35% (Jul 22, 2:54 PM)29.57 "Hg (Jul 21, 6:54 PM)
Average72 °F67%29.87 "Hg
* Reported Jul 19 9:54 PM — Aug 3 9:54 PM, Worcester, Weather by CustomWeather, © 2015

Note: Actual official high and low records may vary slightly from our data, if they occured in-between our weather recording intervals... More about our weather records

Advertising

Worcester weather history for previous 24 hours

 ConditionsComfort  
Time TempWeatherWind HumidityBarometerVisibility
9:54 PM
Mon, Aug 3
73 °FClear.12 mph79%29.82 "Hg10 mi
8:54 PM74 °FSunny.14 mph71%29.81 "Hg10 mi
7:54 PM75 °FSunny.13 mph66%29.80 "Hg10 mi
6:54 PM77 °FSunny.12 mph56%29.78 "Hg10 mi
5:54 PM81 °FSunny.12 mph49%29.79 "Hg10 mi
4:54 PM82 °FPassing clouds.12 mph43%29.78 "Hg10 mi
3:54 PM84 °FSunny.14 mph41%29.79 "Hg10 mi
2:54 PM84 °FPassing clouds.13 mph43%29.81 "Hg10 mi
1:54 PM83 °FSunny.16 mph44%29.82 "Hg10 mi
12:54 PM83 °FPassing clouds.17 mph48%29.83 "Hg10 mi
11:54 AM82 °FSunny.16 mph49%29.85 "Hg10 mi
10:54 AM80 °FSunny.14 mph52%29.85 "Hg10 mi
9:54 AM76 °FSunny.10 mph62%29.86 "Hg10 mi
8:54 AM73 °FSunny.9 mph69%29.86 "Hg10 mi
7:54 AM68 °FSunny.9 mph84%29.87 "Hg10 mi
6:54 AM66 °FSunny.9 mph90%29.87 "Hg10 mi
5:54 AM65 °FClear.9 mph91%29.86 "Hg10 mi
4:54 AM65 °FFog.10 mph94%29.85 "Hg6 mi
3:54 AM65 °FClear.10 mph94%29.85 "Hg8 mi
2:54 AM64 °FClear.8 mph94%29.86 "Hg10 mi
1:54 AM64 °FClear.9 mph94%29.87 "Hg10 mi
12:54 AM64 °FClear.9 mph94%29.88 "Hg10 mi
11:54 PM
Sun, Aug 2
66 °FClear.10 mph84%29.87 "Hg10 mi
Weather by CustomWeather, © 2015

See weather overviewHow to use our weather pages